Location: Hradec Kralove
(50.2170°N, 15.8330°E)
Time: 06:07:12
(UTC+01:00)

Vanguard 3 - All Passes

Search period start: 30 January 2023 00:00
Search period end: 09 February 2023 00:00
Orbit: 509 x 3252 km, 33.4° (Epoch: 29 January)

Date Brightness Start Highest point End Pass type
(mag) Time Alt. Az. Time Alt. Az. Time Alt. Az.
30 Jan - 00:22:49 10° W 00:38:08 37° SSW 00:54:41 10° SE visible
30 Jan - 02:39:20 10° W 02:51:08 20° SW 03:02:30 10° S visible
30 Jan - 18:46:38 10° SSW 18:55:09 24° SE 19:06:59 10° E visible
30 Jan - 20:55:09 10° SW 21:07:12 41° SSE 21:24:04 10° ESE visible
30 Jan - 23:06:34 10° WSW 23:21:02 42° S 23:38:34 10° SE visible
31 Jan - 01:20:41 10° W 01:34:47 28° SSW 01:49:19 10° SSE visible
31 Jan - 17:35:19 10° SSE 17:40:18 14° SE 17:46:25 10° ESE visible
31 Jan - 19:40:59 10° SW 19:51:02 34° SSE 20:05:40 10° ESE visible
31 Jan - 21:51:05 10° WSW 22:04:01 43° S 22:21:29 10° ESE visible
01 Feb - 00:03:37 10° WSW 00:17:59 35° SSW 00:34:23 10° SSE visible
01 Feb - 02:20:20 10° WSW 02:30:58 18° SW 02:41:38 10° S visible
01 Feb - 18:27:45 10° SSW 18:35:34 24° SE 18:46:40 10° E visible
01 Feb - 20:36:18 10° SW 20:47:25 40° S 21:03:37 10° ESE visible
01 Feb - 22:47:32 10° WSW 23:01:00 39° SSW 23:18:11 10° SE visible
02 Feb - 01:01:33 10° W 01:14:37 26° SSW 01:28:45 10° SSE night (unlit)
02 Feb - 17:16:19 10° SSE 17:20:49 14° SE 17:26:23 10° ESE visible
02 Feb - 19:22:13 10° SW 19:31:24 33° SSE 19:45:13 10° ESE visible
02 Feb - 21:32:14 10° WSW 21:44:10 41° S 22:00:59 10° ESE visible
02 Feb - 23:44:35 10° WSW 23:57:53 32° SSW 00:13:50 10° SSE visible
03 Feb - 02:01:43 10° WSW 02:10:49 16° SW 02:20:15 10° SSW night (unlit)
03 Feb - 18:09:00 10° SSW 18:16:06 24° SSE 18:26:19 10° ESE visible
03 Feb - 20:17:34 10° SW 20:27:45 38° S 20:43:05 10° ESE visible
03 Feb - 22:28:39 10° WSW 22:41:03 37° SSW 22:57:35 10° SE visible
04 Feb - 00:42:38 10° WSW 00:54:29 23° SSW 01:07:49 10° S visible
04 Feb - 16:57:29 10° SSE 17:01:27 14° SE 17:06:19 10° ESE daylight
04 Feb - 19:03:33 10° SW 19:11:55 32° SSE 19:24:43 10° ESE visible
04 Feb - 21:13:29 10° WSW 21:24:24 39° S 21:40:21 10° SE visible
04 Feb - 23:25:42 10° WSW 23:37:52 30° SSW 23:53:00 10° SSE visible
05 Feb - 01:43:46 10° WSW 01:50:44 13° SW 01:58:02 10° SSW night (unlit)
05 Feb - 17:50:21 10° SSW 17:56:44 23° SSE 18:06:00 10° ESE visible
05 Feb - 19:58:56 10° SW 20:08:11 36° S 20:22:28 10° ESE visible
05 Feb - 22:09:53 10° WSW 22:21:12 34° SSW 22:36:47 10° SE visible
06 Feb - 00:24:00 10° WSW 00:34:27 20° SW 00:46:29 10° S visible
06 Feb - 16:38:48 10° SSE 16:42:10 13° SE 16:46:15 10° ESE daylight
06 Feb - 18:44:59 10° SW 18:52:32 31° SSE 19:04:12 10° ESE visible
06 Feb - 20:54:50 10° WSW 21:04:46 36° S 21:19:36 10° SE visible
06 Feb - 23:07:01 10° WSW 23:17:57 26° SSW 23:31:55 10° SSE visible
07 Feb - 01:27:38 10° SW 01:30:43 11° SW 01:33:53 10° SW night (unlit)
07 Feb - 17:31:46 10° SSW 17:37:29 22° SSE 17:45:42 10° ESE visible
07 Feb - 19:40:22 10° SW 19:48:44 34° S 20:01:48 10° ESE visible
07 Feb - 21:51:16 10° WSW 22:01:28 31° SSW 22:15:49 10° SE visible
08 Feb - 00:05:45 10° WSW 00:14:30 17° SW 00:24:41 10° S visible
08 Feb - 16:20:15 10° SSE 16:22:59 12° SE 16:26:13 10° ESE daylight
08 Feb - 18:26:28 10° SW 18:33:16 29° SSE 18:43:43 10° ESE visible
08 Feb - 20:36:18 10° WSW 20:45:14 33° S 20:58:44 10° SE visible
08 Feb - 22:48:33 10° WSW 22:58:09 23° SSW 23:10:32 10° SSE visible
